MAS1034 WMKJ-WMKK

Flight info

Callsign MAS1034
Flight time N/A
Altitude 20000
Route SABKA1K SABKA A457 GUPTA GUPTA1H
Aircraft B738/M-SDE2E3FGHIRWXY/LB1

Departure

Time N/A
Airport Senai International Airport (WMKJ)

Arrival

Time 2026-05-06 01:24
Airport Kuala Lumpur International Airport (WMKK)
Time Latitude Longitude Altitude Speed Heading
2026-05-06 01:09 2.65208 101.48251 7992 ft 261 kts 115°
2026-05-06 01:10 2.64565 101.49926 7990 ft 258 kts 102°
2026-05-06 01:10 2.64525 101.51694 7988 ft 259 kts 77°
2026-05-06 01:10 2.65314 101.53316 7990 ft 259 kts 52°
2026-05-06 01:10 2.66635 101.54541 7991 ft 260 kts 36°
2026-05-06 01:11 2.68245 101.55393 7993 ft 261 kts 25°
2026-05-06 01:11 2.69929 101.56078 7993 ft 261 kts 23°
2026-05-06 01:11 2.71601 101.56742 7992 ft 256 kts 22°
2026-05-06 01:11 2.73319 101.57210 7988 ft 248 kts
2026-05-06 01:12 2.74992 101.57050 7980 ft 243 kts 340°
2026-05-06 01:12 2.76457 101.56186 7990 ft 246 kts 325°
2026-05-06 01:12 2.77833 101.55146 7991 ft 246 kts 325°
2026-05-06 01:12 2.79218 101.54147 7995 ft 246 kts 327°
2026-05-06 01:13 2.80638 101.53181 7991 ft 246 kts 328°
2026-05-06 01:13 2.82066 101.52228 7991 ft 246 kts 328°
2026-05-06 01:13 2.83487 101.51279 7988 ft 246 kts 328°
2026-05-06 01:13 2.84929 101.50314 7989 ft 246 kts 328°
2026-05-06 01:14 2.87753 101.48412 7995 ft 245 kts 327°
2026-05-06 01:14 2.89181 101.47450 7993 ft 246 kts 328°
2026-05-06 01:14 2.90615 101.46483 7990 ft 246 kts 327°
2026-05-06 01:15 2.92044 101.45520 7948 ft 248 kts 328°
2026-05-06 01:15 2.93485 101.44553 7670 ft 249 kts 327°
2026-05-06 01:15 2.94930 101.43612 7390 ft 247 kts 332°
2026-05-06 01:15 2.96512 101.43020 7124 ft 242 kts 357°
2026-05-06 01:16 2.98111 101.43344 6991 ft 230 kts 30°
2026-05-06 01:16 2.99337 101.44378 6745 ft 229 kts 52°
2026-05-06 01:16 3.00256 101.45664 6501 ft 227 kts 57°
2026-05-06 01:16 3.01124 101.46969 6255 ft 226 kts 57°
2026-05-06 01:17 3.02005 101.48276 6011 ft 225 kts 57°
2026-05-06 01:17 3.02879 101.49573 5901 ft 221 kts 58°
2026-05-06 01:17 3.03555 101.50947 5842 ft 223 kts 77°
2026-05-06 01:17 3.03478 101.52475 5749 ft 225 kts 110°
2026-05-06 01:18 3.02577 101.53760 5302 ft 236 kts 138°
2026-05-06 01:18 3.01204 101.54693 5032 ft 235 kts 148°
2026-05-06 01:18 2.99839 101.55519 4910 ft 225 kts 146°
2026-05-06 01:18 2.98540 101.56367 4811 ft 216 kts 144°
2026-05-06 01:19 2.97303 101.57205 4533 ft 216 kts 144°
2026-05-06 01:19 2.96041 101.58052 4231 ft 218 kts 145°
2026-05-06 01:19 2.94786 101.58885 3936 ft 219 kts 145°
2026-05-06 01:19 2.93512 101.59735 3640 ft 220 kts 144°
2026-05-06 01:20 2.92221 101.60601 3338 ft 221 kts 144°
2026-05-06 01:20 2.90921 101.61467 3039 ft 235 kts 146°
2026-05-06 01:20 2.89541 101.62388 2721 ft 238 kts 145°
2026-05-06 01:20 2.88167 101.63309 2405 ft 237 kts 145°
2026-05-06 01:21 2.86790 101.64229 2092 ft 236 kts 144°
2026-05-06 01:21 2.85458 101.65116 1802 ft 220 kts 145°
2026-05-06 01:21 2.84259 101.65925 1518 ft 196 kts 145°
2026-05-06 01:21 2.83179 101.66647 1269 ft 177 kts 145°
2026-05-06 01:22 2.82199 101.67298 1049 ft 162 kts 145°
2026-05-06 01:22 2.81304 101.67895 852 ft 147 kts 146°
2026-05-06 01:22 2.80474 101.68448 673 ft 140 kts 145°
2026-05-06 01:22 2.79650 101.68980 497 ft 140 kts 147°
2026-05-06 01:23 2.78841 101.69508 335 ft 137 kts 146°
2026-05-06 01:23 2.78047 101.70049 152 ft 137 kts 146°
2026-05-06 01:23 2.77262 101.70567 64 ft 131 kts 147°
2026-05-06 01:23 2.76611 101.71010 61 ft 84 kts 147°
2026-05-06 01:24 2.76228 101.71254 62 ft 64 kts 153°
2026-05-06 01:24 2.75925 101.71251 67 ft 31 kts 227°
2026-05-06 01:24 2.75788 101.71086 70 ft 28 kts 237°
2026-05-06 01:24 2.75674 101.70988 74 ft 17 kts 148°
2026-05-06 01:25 2.75655 101.71001 74 ft 0 kts 147°